Location: Sobotiste
(48.7170°N, 17.4000°E)
Time: 09:02:50
(UTC+02:00)

YUBILEINY - Pass Details

Date: 14 March 2026
Orbit: 1477 x 1509 km, 82.5° (Epoch: 17 April)

Event Time Altitude Azimuth Distance (km) Brightness Sun altitude
Rises 02:47:30 0° 350° (N) 4,625 ? -31.6°
Reaches altitude 10° 02:50:27 10° 353° (N) 3,638 ? -31.2°
Maximum altitude 02:59:09 67° 76° (ENE) 1,589 ? -30.1°
Drops below altitude 10° 03:07:46 10° 159° (SSE) 3,607 ? -28.9°
Sets 03:10:40 0° 162° (SSE) 4,583 ? -28.5°
